GW0409 Weather Reports


time (UTC)temp
C
wind
direction
speed
KPH
gust
KPH
rain 1hr
cm
rain 24hr
cm
rain mn
cm
humidity
%
barometer
mb
20260504081020 13 12 8.0 16.1 0.00 0.00 0.00 48 1014.1
20260504050018 16 31 3.2 6.4 0.00 0.00 0.00 42 1014.1
20260504045018 16 54 1.6 6.4 0.00 0.00 0.00 41 1014.1
20260504044019 16 11 1.6 6.4 0.00 0.00 0.00 42 1014.1
20260504043019 16 31 1.6 4.8 0.00 0.00 0.00 41 1013.9
20260504042018 16 32 1.6 6.4 0.00 0.00 0.00 42 1013.9
20260504041017 16 356 0.0 3.2 0.00 0.00 0.00 43 1013.8
20260504040020 17 57 0.0 4.8 0.00 0.00 0.00 42 1013.7
20260504035020 17 48 0.0 3.2 0.00 0.00 0.00 41 1013.6
20260504034041 17 54 0.0 3.2 0.00 0.00 0.00 40 1013.5
20260504033019 18 61 0.0 3.2 0.00 0.00 0.00 40 1013.4
20260504032020 18 109 1.6 6.4 0.00 0.00 0.00 39 1013.4
20260504031018 19 82 1.6 4.8 0.00 0.00 0.00 37 1013.3
20260504030018 19 5 1.6 4.8 0.00 0.00 0.00 36 1013.3
20260504025019 20 43 4.8 11.3 0.00 0.00 0.00 35 1013.3
20260504024019 21 57 4.8 8.0 0.00 0.00 0.00 33 1013.3
20260504023039 21 33 1.6 6.4 0.00 0.00 0.00 33 1013.3
20260504022039 21 39 3.2 9.7 0.00 0.00 0.00 33 1013.3
20260504021019 21 18 3.2 8.0 0.00 0.00 0.00 32 1013.3
20260504020018 21 67 3.2 12.9 0.00 0.00 0.00 32 1013.5
20260504015019 21 74 4.8 9.7 0.00 0.00 0.00 32 1013.5
20260504014019 21 59 6.4 12.9 0.00 0.00 0.00 32 1013.6
20260504013021 21 67 4.8 12.9 0.00 0.00 0.00 32 1013.6
20260504012019 21 334 4.8 16.1 0.00 0.00 0.00 32 1013.7
20260504011020 21 29 4.8 9.7 0.00 0.00 0.00 32 1013.8
20260504010020 21 58 4.8 12.9 0.00 0.00 0.00 32 1013.9
20260504005017 21 57 6.4 14.5 0.00 0.00 0.00 32 1013.9
20260504004017 22 39 3.2 12.9 0.00 0.00 0.00 32 1014.0
20260504003017 22 33 4.8 14.5 0.00 0.00 0.00 32 1014.0
20260504002038 22 64 4.8 12.9 0.00 0.00 0.00 33 1014.1
20260504001018 22 298 4.8 17.7 0.00 0.00 0.00 33 1014.1
20260504000018 22 333 4.8 16.1 0.00 0.00 0.00 33 1014.1
20260503235018 21 249 4.8 11.3 0.00 0.00 0.00 33 1014.2
20260503234019 21 0.0 0.0 0.00 0.00 0.00 34 1014.4
20260503233018 21 325 3.2 9.7 0.00 0.00 0.00 33 1014.5
20260503232040 21 79 3.2 8.0 0.00 0.00 0.00 32 1014.6
20260503231019 21 236 3.2 9.7 0.00 0.00 0.00 31 1014.7
20260503230019 21 318 6.4 14.5 0.00 0.00 0.00 30 1014.9
20260503225043 21 0.0 0.0 0.00 0.00 0.00 31 1015.0
20260503224019 20 300 4.8 12.9 0.00 0.00 0.00 33 1015.1
20260503223016 20 254 4.8 12.9 0.00 0.00 0.00 34 1015.2
20260503222017 21 304 6.4 16.1 0.00 0.00 0.00 34 1015.2
20260503221020 21 311 4.8 14.5 0.00 0.00 0.00 34 1015.3
20260503220022 21 345 4.8 12.9 0.00 0.00 0.00 34 1015.5
20260503215017 21 338 4.8 19.3 0.00 0.00 0.00 35 1015.6
20260503214019 20 321 4.8 12.9 0.00 0.00 0.00 35 1015.7
20260503213017 20 360 4.8 14.5 0.00 0.00 0.00 36 1015.8
20260503212040 20 355 4.8 11.3 0.00 0.00 0.00 36 1015.9
20260503211018 20 283 8.0 20.9 0.00 0.00 0.00 37 1016.1
20260503210018 20 1 8.0 17.7 0.00 0.00 0.00 39 1016.2
20260503205018 19 297 4.8 16.1 0.00 0.00 0.00 39 1016.2
20260503204038 19 307 4.8 14.5 0.00 0.00 0.00 39 1016.4
20260503203019 18 13 4.8 14.5 0.00 0.00 0.00 41 1016.5
20260503202018 18 13 6.4 12.9 0.00 0.00 0.00 41 1016.6
20260503201019 18 233 4.8 9.7 0.00 0.00 0.00 44 1016.7
20260503200019 18 289 3.2 9.7 0.00 0.00 0.00 41 1016.7
20260503195019 17 262 6.4 12.9 0.00 0.00 0.00 44 1016.8
20260503194020 17 207 4.8 9.7 0.00 0.00 0.00 47 1016.9
20260503193058 17 225 4.8 11.3 0.00 0.00 0.00 45 1017.0
20260503192018 17 225 4.8 12.9 0.00 0.00 0.00 46 1017.0
20260503191021 16 7 4.8 9.7 0.00 0.00 0.00 47 1017.1
20260503190020 16 350 4.8 11.3 0.00 0.00 0.00 48 1017.4
20260503185019 16 249 6.4 14.5 0.00 0.00 0.00 50 1017.3
20260503184019 16 230 3.2 9.7 0.00 0.00 0.00 51 1017.5
20260503183038 16 359 4.8 14.5 0.00 0.00 0.00 50 1017.5
20260503182018 15 314 3.2 11.3 0.00 0.00 0.00 51 1017.6
20260503181040 15 351 3.2 12.9 0.00 0.00 0.00 52 1017.7
20260503180020 15 301 3.2 12.9 0.00 0.00 0.00 55 1017.6
20260503175040 14 338 4.8 9.7 0.00 0.00 0.00 57 1017.8
20260503174039 14 300 4.8 11.3 0.00 0.00 0.00 58 1017.9
20260503173019 13 291 4.8 8.0 0.00 0.00 0.00 58 1017.9
20260503172016 13 350 4.8 11.3 0.00 0.00 0.00 60 1018.0
20260503171019 13 316 4.8 11.3 0.00 0.00 0.00 62 1018.1
20260503150959 10 238 3.2 6.4 0.00 0.00 0.00 75 1018.0
20260503131017 8 219 1.6 4.8 0.00 0.00 0.00 79 1017.7